This is the latest recevied weather packets stored in our database for station/object IN3ISU-13. If no packets are shown the sender has not sent any weather packets the latest 10 day(s).
| Time | Temp. | Humidity | Pressure | Rain* | Wind** | Luminosity | Snow |
|---|---|---|---|---|---|---|---|
| 1788170402 | 26.11° C | 59% | 1015 hPa | 0 mm | - | - | - |
| 1788168602 | 25.56° C | 61% | 1016 hPa | 0 mm | - | - | - |
| 1788166802 | 25° C | 62% | 1016 hPa | 0 mm | - | - | - |
| 1788165002 | 23.33° C | 71% | 1017 hPa | 0 mm | - | - | - |
| 1788163202 | 23.33° C | 72% | 1017 hPa | 0 mm | - | - | - |
| 1788161402 | 22.78° C | 73% | 1016 hPa | 0 mm | - | - | - |
| 1788157803 | 20.56° C | 62% | 1017 hPa | 0 mm | - | - | - |
| 1788156002 | 20° C | 55% | 1017 hPa | 0 mm | - | - | - |
| 1788152402 | 19.44° C | 63% | 1017 hPa | 0 mm | - | - | - |
| 1788150602 | 19.44° C | 63% | 1016 hPa | 0 mm | - | - | - |
| 1788148802 | 19.44° C | 62% | 1017 hPa | 0 mm | - | - | - |
| 1788147002 | 20° C | 62% | 1017 hPa | 0 mm | - | - | - |
| 1788109203 | 26.11° C | 72% | 1015 hPa | 0 mm | - | - | - |
| 1788103802 | 30.56° C | 42% | 1014 hPa | 0 mm | - | - | - |
| 1788100202 | 31.67° C | 35% | 1014 hPa | 0 mm | - | - | - |
| 1788098402 | 31.67° C | 35% | 1014 hPa | 0 mm | - | - | - |
| 1788093002 | 31.11° C | 35% | 1015 hPa | 0 mm | - | - | - |
| 1788091202 | 30.56° C | 36% | 1015 hPa | 0 mm | - | - | - |
| 1788089402 | 30° C | 36% | 1015 hPa | 0 mm | - | - | - |
| 1788087602 | 29.44° C | 37% | 1016 hPa | 0 mm | - | - | - |
| 1788085802 | 27.22° C | 54% | 1016 hPa | 0 mm | - | - | - |
| 1788084002 | 26.67° C | 56% | 1017 hPa | 0 mm | - | - | - |
| 1788082202 | 24.44° C | 63% | 1017 hPa | 0 mm | - | - | - |
| 1788080402 | 23.89° C | 67% | 1017 hPa | 0 mm | - | - | - |
| 1788078602 | 23.33° C | 66% | 1017 hPa | 0 mm | - | - | - |
* Rain latest hour (hover to see other rain measurements)
** Current wind speed in m/s (hover to see current wind gust speed)